Location: Augustenthal
(51.7167°N, 10.2833°E)
Time: 08:05:37
(UTC+00:00)

COSMOS 2455 - Pass Details

Date: 18 May 2021
Orbit: 902 x 908 km, 67.1° (Epoch: 20 June)

Event Time Altitude Azimuth Distance (km) Brightness Sun altitude
Rises 21:31:07 0° 320° (NW) 3,545 7.5 -15.0°
Reaches altitude 10° 21:33:50 10° 329° (NNW) 2,601 6.6 -15.2°
Maximum altitude 21:39:26 38° 37° (NE) 1,352 4.0 -15.5°
Drops below altitude 10° 21:45:02 10° 105° (ESE) 2,593 4.9 -15.8°
Enters shadow 21:45:33 - 107° (ESE) 2,768 5.0 -15.9°
